Location: *
(44.3925°N, 5.4708°E)
Time: 05:16:39
(UTC+00:00)

Meteor 2-5 Rocket - Pass Details

Date: 18 September 2019
Orbit: 834 x 911 km, 81.2° (Epoch: 16 October)

Event Time Altitude Azimuth Distance (km) Brightness Sun altitude
Rises 19:48:26 0° 349° (N) 3,483 7.4 -22.2°
Reaches altitude 10° 19:50:52 10° 351° (N) 2,552 6.6 -22.6°
Maximum altitude 19:56:42 85° 80° (E) 905 3.7 -23.6°
Enters shadow 19:58:44 44° 165° (SSE) 1,232 4.2 -23.9°
